| time (UTC) | temp C | wind direction | speed KPH | gust KPH | rain 1hr cm | rain 24hr cm | rain mn cm | humidity % | barometer mb |
| 20260505041042 | 14 | 342 | 1.6 | 3.2 | 0.25 | 1.12 | 0.51 | 96 | 1015.1 |
| 20260505040045 | 14 | 344 | 1.6 | 3.2 | 0.30 | 1.09 | 0.48 | 96 | 1015.2 |
| 20260505035042 | 14 | 344 | 1.6 | 3.2 | 0.30 | 1.07 | 0.46 | 96 | 1015.3 |
| 20260505034042 | 14 | 337 | 0.0 | 3.2 | 0.28 | 1.02 | 0.41 | 96 | 1015.2 |
| 20260505033042 | 14 | 358 | 1.6 | 3.2 | 0.28 | 0.99 | 0.38 | 96 | 1015.1 |
| 20260505032043 | 14 | 346 | 3.2 | 4.8 | 0.20 | 0.91 | 0.33 | 96 | 1015.2 |
| 20260505031041 | 14 | 339 | 3.2 | 4.8 | 0.18 | 0.86 | 0.25 | 96 | 1015.3 |
| 20260505030042 | 14 | 342 | 1.6 | 3.2 | 0.10 | 0.79 | 0.18 | 96 | 1014.9 |
| 20260505025043 | 14 | 343 | 3.2 | 4.8 | 0.10 | 0.76 | 0.15 | 96 | 1015.2 |
| 20260505024043 | 14 | 342 | 1.6 | 3.2 | 0.08 | 0.74 | 0.13 | 96 | 1015.3 |
| 20260505023042 | 14 | 346 | 1.6 | 3.2 | 0.05 | 0.71 | 0.10 | 96 | 1015.3 |
| 20260505022052 | 14 | 353 | 1.6 | 3.2 | 0.05 | 0.71 | 0.10 | 95 | 1015.6 |
| 20260505021053 | 14 | 354 | 1.6 | 3.2 | 0.03 | 0.69 | 0.08 | 95 | 1015.7 |
| 20260505020050 | 14 | 1 | 1.6 | 3.2 | 0.03 | 0.69 | 0.08 | 95 | 1015.7 |
| 20260505015049 | 15 | 347 | 1.6 | 3.2 | 0.00 | 0.66 | 0.05 | 95 | 1015.9 |
| 20260505014043 | 15 | 344 | 1.6 | 3.2 | 0.00 | 0.66 | 0.05 | 95 | 1015.9 |
| 20260505013056 | 15 | 352 | 3.2 | 4.8 | 0.00 | 0.66 | 0.05 | 95 | 1016.1 |
| 20260505012046 | 15 | 346 | 1.6 | 3.2 | 0.03 | 0.66 | 0.05 | 95 | 1016.3 |
| 20260505011049 | 15 | 341 | 1.6 | 4.8 | 0.03 | 0.66 | 0.05 | 95 | 1016.3 |
| 20260505010052 | 15 | 350 | 1.6 | 4.8 | 0.03 | 0.66 | 0.05 | 95 | 1016.4 |
| 20260505005052 | 15 | 336 | 1.6 | 4.8 | 0.03 | 0.66 | 0.05 | 95 | 1016.5 |
| 20260505004527 | 15 | 351 | 3.2 | 4.8 | 0.03 | 0.66 | 0.05 | 95 | 1016.5 |
| 20260505003051 | 15 | 347 | 3.2 | 4.8 | 0.05 | 0.66 | 0.05 | 95 | 1016.8 |
| 20260505002052 | 15 | 344 | 1.6 | 3.2 | 0.03 | 0.64 | 0.03 | 95 | 1016.6 |
| 20260505001047 | 15 | 343 | 3.2 | 3.2 | 0.03 | 0.64 | 0.03 | 95 | 1016.7 |
| 20260505000037 | 15 | 344 | 3.2 | 3.2 | 0.03 | 0.64 | 0.03 | 95 | 1016.7 |
| 20260504235042 | 15 | 2 | 3.2 | 4.8 | 0.05 | 0.64 | 0.03 | 95 | 1016.6 |
| 20260504234041 | 15 | 337 | 3.2 | 4.8 | 0.08 | 0.64 | 0.03 | 94 | 1016.7 |
| 20260504233032 | 15 | 345 | 3.2 | 4.8 | 0.08 | 0.61 | 0.00 | 95 | 1016.9 |
| 20260504232031 | 15 | 4 | 3.2 | 4.8 | 0.08 | 0.61 | 0.00 | 95 | 1016.8 |
| 20260504231035 | 15 | 345 | 1.6 | 4.8 | 0.10 | 0.61 | 0.00 | 95 | 1016.8 |
| 20260504230032 | 15 | 342 | 1.6 | 3.2 | 0.10 | 0.61 | 0.00 | 95 | 1016.9 |
| 20260504225033 | 15 | 353 | 1.6 | 4.8 | 0.08 | 0.58 | 0.58 | 95 | 1016.9 |
| 20260504224033 | 15 | 348 | 1.6 | 3.2 | 0.05 | 0.56 | 0.56 | 95 | 1016.9 |
| 20260504223036 | 15 | 343 | 1.6 | 3.2 | 0.03 | 0.53 | 0.53 | 95 | 1016.8 |
| 20260504222030 | 15 | 340 | 1.6 | 4.8 | 0.03 | 0.53 | 0.53 | 95 | 1016.7 |
| 20260504221031 | 15 | 348 | 3.2 | 4.8 | 0.00 | 0.51 | 0.51 | 95 | 1016.8 |
| 20260504220039 | 15 | 344 | 3.2 | 4.8 | 0.00 | 0.51 | 0.51 | 95 | 1016.8 |
| 20260504215953 | 15 | 348 | 1.6 | 3.2 | 0.00 | 0.51 | 0.51 | 95 | 1016.8 |
| 20260504214031 | 15 | 347 | 4.8 | 4.8 | 0.00 | 0.51 | 0.51 | 95 | 1016.6 |
| 20260504213032 | 15 | 354 | 3.2 | 3.2 | 0.00 | 0.51 | 0.51 | 95 | 1016.5 |
| 20260504212034 | 15 | 334 | 1.6 | 4.8 | 0.00 | 0.51 | 0.51 | 95 | 1016.7 |
| 20260504211033 | 15 | 16 | 1.6 | 4.8 | 0.03 | 0.51 | 0.51 | 95 | 1016.4 |
| 20260504210035 | 15 | 346 | 3.2 | 4.8 | 0.05 | 0.51 | 0.51 | 95 | 1016.5 |
| 20260504205031 | 15 | 343 | 3.2 | 4.8 | 0.05 | 0.51 | 0.51 | 96 | 1016.4 |
| 20260504204037 | 15 | 346 | 1.6 | 3.2 | 0.05 | 0.53 | 0.51 | 96 | 1016.1 |
| 20260504203509 | 15 | 0 | 0.0 | 1.6 | 0.05 | 0.53 | 0.51 | 96 | 1016.2 |
| 20260504203003 | 15 | 0 | 0.0 | 1.6 | 0.05 | 0.53 | 0.51 | 96 | 1016.0 |
| 20260504201033 | 16 | 98 | 0.0 | 0.0 | 0.03 | 0.51 | 0.48 | 96 | 1015.9 |
| 20260504200033 | 16 | 32 | 0.0 | 1.6 | 0.00 | 0.48 | 0.46 | 96 | 1016.0 |
| 20260504195032 | 16 | 8 | 0.0 | 1.6 | 0.00 | 0.51 | 0.46 | 96 | 1016.1 |
| 20260504194033 | 16 | 54 | 0.0 | 1.6 | 0.00 | 0.51 | 0.46 | 96 | 1016.0 |
| 20260504193506 | 16 | 28 | 0.0 | 3.2 | 0.00 | 0.51 | 0.46 | 96 | 1015.8 |
| 20260504192036 | 16 | 128 | 0.0 | 3.2 | 0.00 | 0.51 | 0.46 | 96 | 1015.9 |
| 20260504191435 | 16 | 176 | 1.6 | 4.8 | 0.00 | 0.53 | 0.46 | 95 | 1015.7 |
| 20260504191108 | 16 | 121 | 1.6 | 4.8 | 0.00 | 0.53 | 0.46 | 95 | 1015.9 |
| 20260504185033 | 16 | 164 | 3.2 | 6.4 | 0.00 | 0.53 | 0.46 | 95 | 1015.7 |
| 20260504184034 | 16 | 145 | 3.2 | 6.4 | 0.00 | 0.53 | 0.46 | 95 | 1015.6 |
| 20260504183033 | 16 | 130 | 4.8 | 4.8 | 0.00 | 0.53 | 0.46 | 94 | 1015.6 |
| 20260504182042 | 16 | 46 | 3.2 | 4.8 | 0.00 | 0.53 | 0.46 | 94 | 1015.6 |
| 20260504181514 | 16 | 158 | 1.6 | 6.4 | 0.00 | 0.56 | 0.46 | 93 | 1015.6 |
| 20260504180035 | 16 | 173 | 3.2 | 9.7 | 0.00 | 0.56 | 0.46 | 92 | 1015.7 |
| 20260504175034 | 17 | 137 | 4.8 | 6.4 | 0.00 | 0.56 | 0.46 | 92 | 1015.8 |
| 20260504174523 | 17 | 132 | 1.6 | 6.4 | 0.00 | 0.56 | 0.46 | 92 | 1015.9 |
| 20260504173517 | 17 | 124 | 4.8 | 4.8 | 0.00 | 0.56 | 0.46 | 92 | 1015.9 |
| 20260504172032 | 17 | 115 | 1.6 | 6.4 | 0.00 | 0.56 | 0.46 | 91 | 1016.0 |
| 20260504171033 | 17 | 145 | 3.2 | 6.4 | 0.00 | 0.56 | 0.46 | 90 | 1015.9 |
| 20260504151032 | 17 | 165 | 3.2 | 6.4 | 0.00 | 0.69 | 0.46 | 90 | 1016.2 |
| 20260504150511 | 17 | 136 | 3.2 | 6.4 | 0.00 | 0.71 | 0.46 | 90 | 1016.3 |
| 20260504141032 | 17 | 129 | 1.6 | 6.4 | 0.00 | 0.71 | 0.46 | 93 | 1016.4 |
| 20260504081512 | 16 | 30 | 0.0 | 3.2 | 0.00 | 0.30 | 0.00 | 92 | 1016.0 |
| 20260504045032 | 13 | 342 | 6.4 | 6.4 | 0.00 | 0.30 | 0.00 | 93 | 1015.3 |
| 20260504044517 | 13 | 342 | 3.2 | 6.4 | 0.00 | 0.30 | 0.00 | 93 | 1015.2 |
| 20260504043032 | 13 | 337 | 3.2 | 6.4 | 0.00 | 0.30 | 0.00 | 93 | 1015.2 |
| 20260504042032 | 13 | 345 | 4.8 | 9.7 | 0.00 | 0.30 | 0.00 | 94 | 1015.2 |